St. Johnsbury, VT

6:34 AM EST on November 19, 2017 (GMT -0500)
St. Johnsbury

Weather History for K1V4 - March, 2014

Change the Weather History Date:

Friday, March 14, 2014

  Actual Average Record
Temperature  
Mean Temperature 10 °F 29 °F  
Max Temperature 31 °F 40 °F 62 °F (1946)
Min Temperature -12 °F 18 °F -17 °F (1926)
Degree Days  
Heating Degree Days 55 36  
Month to date heating degree days 703 540  
Since 1 July heating degree days 6735 6264  
Cooling Degree Days 0 0  
Month to date cooling degree days 0 0  
Year to date cooling degree days 0 0  
Moisture  
Dew Point 2 °F    
Average Humidity 66    
Maximum Humidity 87    
Minimum Humidity 45    
Precipitation  
Precipitation T in 0.08 in 1.84 in (1984)
Month to date precipitation 1.51 1.07  
Year to date precipitation 6.64 5.75  
Sea Level Pressure  
Sea Level Pressure 29.98 in    
Wind  
Wind Speed - (North)    
Max Wind Speed -    
Max Gust Speed -    
T = Trace of Precipitation, MM = Missing Value Source: NWS Daily Summary

Daily Weather History Graph

Daily Weather History Graph

Search for Another Location

Airport or City:

Trip Planner

Search our weather history database for the weather conditions in past years. The results will help you decide how hot, cold, wet, or windy it might be!

Date:

Astronomy

Mar. 14, 2014 Rise Set
Actual Time 7:02 AM EDT 6:52 PM EDT
Civil Twilight 6:33 AM EDT 7:21 PM EDT
Nautical Twilight 5:59 AM EDT 7:55 PM EDT
Astronomical Twilight 5:25 AM EDT 8:30 PM EDT
Moon 5:09 PM EDT (3/14) 5:44 AM EDT (3/14)
Length of Visible Light 12h 48m
Length of Day
11h 50m
Waxing Gibbous, 96% of the Moon is Illuminated
Mar 14
Waxing Gibbous
Mar 16
Full
Mar 23
Last Quarter
Mar 30
New
Apr 7
First Quarter

Hourly Weather History & Observations

Time (EDT) Temp. Dew Point Humidity Pressure Visibility Wind Dir Wind Speed Gust Speed Precip Events Conditions
12:54 AM 1.9 °F -5.1 °F 72% 29.96 in - North - - N/A   Unknown
1:54 AM -0.9 °F -6.0 °F 79% 29.99 in - North - - N/A   Unknown
2:54 AM -4.0 °F -8.0 °F 83% 30.03 in - North - - N/A   Unknown
3:54 AM -6.0 °F -11.0 °F 79% 30.05 in - North - - N/A   Unknown
4:54 AM -9.0 °F -13.0 °F 83% 30.09 in - North - - N/A   Unknown
5:54 AM -9.9 °F -15.0 °F 78% 30.10 in - North - - N/A   Unknown
6:54 AM -11.9 °F -16.1 °F 82% 30.12 in - North - - N/A   Unknown
7:54 AM -11.0 °F -15.0 °F 83% 30.15 in - North - - N/A   Unknown
8:54 AM -7.1 °F -11.9 °F 79% 30.14 in - North - - N/A   Unknown
9:54 AM 1.0 °F -7.1 °F 69% 30.12 in - North - - N/A   Unknown
10:54 AM 12.0 °F -0.9 °F 56% 30.09 in - North - - N/A   Unknown
11:54 AM 18.0 °F 1.0 °F 48% 30.07 in - North - - N/A   Unknown
12:54 PM 21.0 °F 3.0 °F 46% 30.04 in - North - - 0.02 in   Unknown
2:54 PM 25.0 °F 10.0 °F 53% 29.97 in - North - - N/A   Unknown
3:54 PM 25.0 °F 12.0 °F 58% 29.96 in - North - - N/A   Unknown
4:54 PM 26.1 °F 14.0 °F 60% 29.90 in - North - - N/A   Unknown
5:54 PM 27.0 °F 14.0 °F 58% 29.87 in - North - - N/A   Unknown
6:54 PM 28.0 °F 15.1 °F 58% 29.87 in - North - - N/A   Unknown
7:54 PM 28.9 °F 15.1 °F 56% 29.86 in - North - - N/A   Unknown
8:54 PM 28.9 °F 15.1 °F 56% 29.86 in - North - - N/A   Unknown
9:54 PM 28.9 °F 14.0 °F 54% 29.83 in - North - - N/A   Unknown
10:54 PM 28.9 °F 15.1 °F 56% 29.81 in - North - - N/A   Unknown
11:54 PM 30.0 °F 17.1 °F 59% 29.77 in - North - - N/A   Unknown